Date String (YYYY-MM-DD hh:mm:ss) UTC,Instrument flags,absolute air pressure of the measurement (hPa),sample flow rate (lpm),inlet stack bypass flow (lpm),air temperature of the measurement (°C),ambient temperature measured by the external sensor (°C),aerosol sample conditioner tube jacket temperature (°C),OPC LED temperature (°C),internal box temperature (°C),relative humidity of the measurement (%),span deviation,mass concentration of particles derived from Lorenz-Mie calculation of OPC scattering (μg/m³),mass concentration of particles derived from Lorenz-Mie calculation of OPC scattering (μg/m³),mass concentration of particles derived from Lorenz-Mie calculation of OPC scattering (μg/m³)
DateTimeUTC,F1_M11,P_M11,Q1_M11,Q2_M11,T1_M11,T2_M11,T3_M11,T4_M11,T5_M11,U1_M11,ZSPAN_M11,X0_M11,X2_M11,X1_M11
2024-01-30 19:00:00,SystemResetWarning,0834.6,5.00,000.00,025.1,024.5,000.0,033.2,026.7,14.2,0000.0,0009.09,0004.01,0003.58
2024-01-30 19:01:00,SystemResetWarning,0834.5,5.00,000.00,025.2,024.6,000.0,033.2,026.7,14.0,0000.0,0009.28,0004.01,0003.59
2024-01-30 19:02:00,SystemResetWarning,0834.5,5.00,000.00,025.2,024.6,000.0,033.3,026.7,14.1,0000.0,0009.13,0004.01,0003.61
2024-01-30 19:03:00,SystemResetWarning,0834.5,5.00,000.00,025.2,024.6,000.0,033.3,026.7,14.0,0000.0,0008.48,0004.02,0003.62
2024-01-30 19:04:00,SystemResetWarning,0834.4,5.00,000.00,025.2,024.6,000.0,033.3,026.8,13.9,0000.0,0008.20,0004.05,0003.65
2024-01-30 19:05:00,SystemResetWarning,0834.4,5.00,000.00,025.3,024.6,000.0,033.3,026.8,13.9,0000.0,0008.25,0004.09,0003.66
2024-01-30 19:06:00,SystemResetWarning,0834.2,5.00,000.00,025.3,024.7,000.0,033.4,026.8,13.9,0000.0,0008.28,0004.11,0003.68
2024-01-30 19:07:00,SystemResetWarning,0834.3,4.99,000.00,025.3,024.7,000.0,033.4,026.8,13.9,0000.0,0008.36,0004.14,0003.69
2024-01-30 19:08:00,SystemResetWarning,0834.2,4.99,000.00,025.3,024.7,000.0,033.4,026.9,13.7,0000.0,0008.17,0004.16,0003.71
2024-01-30 19:09:00,SystemResetWarning,0834.2,5.00,000.00,025.3,024.7,000.0,033.4,026.9,13.8,0000.0,0007.51,0004.15,0003.72
2024-01-30 19:10:00,SystemResetWarning,0834.2,5.01,000.00,025.3,024.8,000.0,033.4,026.9,13.7,0000.0,0007.48,0004.17,0003.72
2024-01-30 19:11:00,SystemResetWarning,0834.1,5.01,000.00,025.4,024.8,000.0,033.5,026.9,14.1,0000.0,0007.68,0004.14,0003.72
2024-01-30 19:12:00,SystemResetWarning,0834.2,5.00,000.00,025.4,024.8,000.0,033.5,026.9,13.8,0000.0,0008.03,0004.16,0003.73
2024-01-30 19:13:00,SystemResetWarning,0834.1,4.98,000.00,025.4,024.8,000.0,033.5,027.0,13.7,0000.0,0007.96,0004.14,0003.72
2024-01-30 19:14:00,SystemResetWarning,0834.1,5.00,000.00,025.4,024.8,000.0,033.5,027.0,13.6,0000.0,0007.89,0004.12,0003.73
2024-01-30 19:15:00,SystemResetWarning,0834.1,5.00,000.00,025.4,024.8,000.0,033.5,027.0,13.7,0000.0,0007.79,0004.10,0003.73
2024-01-30 19:16:00,SystemResetWarning,0834.1,5.00,000.00,025.5,024.9,000.0,033.6,027.1,13.8,0000.0,0007.77,0004.08,0003.74
2024-01-30 19:17:00,SystemResetWarning,0834.1,5.00,000.00,025.5,024.9,000.0,033.6,027.1,14.0,0000.0,0007.92,0004.08,0003.74
2024-01-30 19:18:00,SystemResetWarning,0834.1,5.00,000.00,025.5,024.9,000.0,033.6,027.1,14.0,0000.0,0008.45,0004.04,0003.73
2024-01-30 19:19:00,SystemResetWarning,0834.1,5.00,000.00,025.5,024.9,000.0,033.6,027.1,13.9,0000.0,0008.74,0004.03,0003.72
2024-01-30 19:20:00,SystemResetWarning,0834.0,5.00,000.00,025.6,025.0,000.0,033.6,027.1,13.5,0000.0,0009.51,0004.02,0003.73
2024-01-30 19:21:00,SystemResetWarning,0834.1,4.99,000.00,025.6,025.0,000.0,033.7,027.1,13.4,0000.0,0009.58,0004.04,0003.74
2024-01-30 19:22:00,SystemResetWarning,0834.0,5.00,000.00,025.6,025.0,000.0,033.7,027.1,13.3,0000.0,0009.29,0004.05,0003.75
2024-01-30 19:23:00,SystemResetWarning,0834.0,5.00,000.00,025.6,025.0,000.0,033.7,027.1,13.4,0000.0,0008.65,0004.06,0003.76
2024-01-30 19:24:00,SystemResetWarning,0834.0,5.00,000.00,025.6,025.0,000.0,033.7,027.2,13.2,0000.0,0008.79,0004.09,0003.77
2024-01-30 19:25:00,SystemResetWarning,0834.0,5.00,000.00,025.7,025.1,000.0,033.7,027.2,13.2,0000.0,0008.82,0004.10,0003.77
2024-01-30 19:26:00,SystemResetWarning,0834.0,5.00,000.00,025.7,025.1,000.0,033.8,027.2,13.2,0000.0,0009.14,0004.11,0003.75
2024-01-30 19:27:00,SystemResetWarning,0834.0,5.00,000.00,025.7,025.1,000.0,033.8,027.2,13.1,0000.0,0009.92,0004.10,0003.73
2024-01-30 19:28:00,SystemResetWarning,0833.9,4.99,000.00,025.7,025.1,000.0,033.8,027.3,13.1,0000.0,0010.47,0004.09,0003.73
2024-01-30 19:29:00,SystemResetWarning,0833.9,5.01,000.00,025.7,025.1,000.0,033.8,027.3,13.3,0000.0,0010.41,0004.11,0003.74
2024-01-30 19:30:00,SystemResetWarning,0834.0,5.01,000.00,025.8,025.2,000.0,033.8,027.3,13.4,0000.0,0010.34,0004.10,0003.73
2024-01-30 19:31:00,SystemResetWarning,0833.9,5.00,000.00,025.8,025.2,000.0,033.9,027.3,13.3,0000.0,0009.56,0004.12,0003.72
2024-01-30 19:32:00,SystemResetWarning,0833.9,5.00,000.00,025.8,025.2,000.0,033.9,027.3,13.3,0000.0,0010.09,0004.12,0003.72
2024-01-30 19:33:00,SystemResetWarning,0833.9,5.00,000.00,025.8,025.2,000.0,033.9,027.4,13.3,0000.0,0010.04,0004.10,0003.71
2024-01-30 19:34:00,SystemResetWarning,0833.8,5.00,000.00,025.8,025.3,000.0,033.9,027.4,13.2,0000.0,0010.01,0004.06,0003.68
2024-01-30 19:35:00,SystemResetWarning,0833.9,5.00,000.00,025.9,025.3,000.0,033.9,027.4,13.2,0000.0,0009.88,0004.01,0003.65
2024-01-30 19:36:00,SystemResetWarning,0833.9,5.00,000.00,025.9,025.3,000.0,034.0,027.4,13.4,0000.0,0009.93,0004.01,0003.63
2024-01-30 19:37:00,SystemResetWarning,0833.8,5.00,000.00,025.9,025.3,000.0,034.0,027.5,13.2,0000.0,0009.98,0004.02,0003.65
2024-01-30 19:38:00,SystemResetWarning,0833.8,5.00,000.00,025.9,025.3,000.0,034.0,027.5,13.0,0000.0,0009.77,0004.04,0003.67
2024-01-30 19:39:00,SystemResetWarning,0833.8,5.00,000.00,025.9,025.4,000.0,034.0,027.5,13.1,0000.0,0009.45,0004.07,0003.68
2024-01-30 19:40:00,SystemResetWarning,0833.8,5.00,000.00,026.0,025.4,000.0,034.1,027.5,13.4,0000.0,0009.24,0004.08,0003.69
2024-01-30 19:41:00,SystemResetWarning,0833.8,5.00,000.00,026.0,025.4,000.0,034.1,027.5,13.4,0000.0,0009.31,0004.09,0003.70
2024-01-30 19:42:00,SystemResetWarning,0833.7,5.00,000.00,026.0,025.4,000.0,034.1,027.6,13.3,0000.0,0009.25,0004.07,0003.71
2024-01-30 19:43:00,SystemResetWarning,0833.7,5.00,000.00,026.0,025.4,000.0,034.1,027.6,13.1,0000.0,0008.52,0004.06,0003.71
2024-01-30 19:44:00,SystemResetWarning,0833.7,4.99,000.00,026.1,025.5,000.0,034.1,027.6,13.2,0000.0,0009.27,0004.08,0003.72
2024-01-30 19:45:00,SystemResetWarning,0833.7,5.00,000.00,026.1,025.5,000.0,034.2,027.6,13.2,0000.0,0009.38,0004.07,0003.73
2024-01-30 19:46:00,SystemResetWarning,0833.7,4.99,000.00,026.1,025.5,000.0,034.2,027.6,12.9,0000.0,0009.40,0004.08,0003.74
2024-01-30 19:47:00,SystemResetWarning,0833.7,5.00,000.00,026.1,025.5,000.0,034.2,027.6,13.3,0000.0,0009.37,0004.09,0003.76
2024-01-30 19:48:00,SystemResetWarning,0833.7,5.00,000.00,026.2,025.6,000.0,034.2,027.7,13.3,0000.0,0009.32,0004.09,0003.76
2024-01-30 19:49:00,SystemResetWarning,0833.7,5.00,000.00,026.2,025.6,000.0,034.2,027.7,13.1,0000.0,0008.54,0004.10,0003.76
2024-01-30 19:50:00,SystemResetWarning,0833.7,5.00,000.00,026.2,025.6,000.0,034.3,027.7,13.0,0000.0,0008.37,0004.06,0003.73
2024-01-30 19:51:00,SystemResetWarning,0833.7,5.00,000.00,026.2,025.6,000.0,034.3,027.8,13.0,0000.0,0008.08,0004.00,0003.71
2024-01-30 19:52:00,SystemResetWarning,0833.6,5.00,000.00,026.2,025.6,000.0,034.3,027.8,13.1,0000.0,0008.04,0003.99,0003.70
2024-01-30 19:53:00,SystemResetWarning,0833.6,5.00,000.00,026.2,025.7,000.0,034.3,027.8,13.4,0000.0,0008.89,0004.00,0003.70
2024-01-30 19:54:00,SystemResetWarning,0833.6,5.00,000.00,026.3,025.7,000.0,034.3,027.8,13.5,0000.0,0009.45,0003.99,0003.69
2024-01-30 19:55:00,SystemResetWarning,0833.5,5.01,000.00,026.3,025.7,000.0,034.4,027.8,13.2,0000.0,0008.66,0003.97,0003.67
2024-01-30 19:56:00,SystemResetWarning,0833.6,5.00,000.00,026.3,025.7,000.0,034.4,027.9,13.1,0000.0,0008.58,0003.97,0003.67
2024-01-30 19:57:00,SystemResetWarning,0833.5,5.00,000.00,026.3,025.8,000.0,034.4,027.9,13.1,0000.0,0008.91,0003.96,0003.68
2024-01-30 19:58:00,SystemResetWarning,0833.5,5.00,000.00,026.4,025.8,000.0,034.4,027.9,13.1,0000.0,0008.88,0003.95,0003.68
2024-01-30 19:59:00,SystemResetWarning,0833.5,5.00,000.00,026.4,025.8,000.0,034.5,027.9,12.9,0000.0,0008.99,0003.98,0003.70
